Piney Island, NC

5:22 AM EDT on June 29, 2017 (GMT -0400)
Piney Island

Weather History for KNBT - December, 2011

Change the Weather History Date:

Tuesday, December 20, 2011

  Actual Average (KMRH) Record (KMRH)
Temperature  
Mean Temperature 59 °F -  
Max Temperature 70 °F 58 °F 70 °F (2013)
Min Temperature 48 °F 37 °F 17 °F (1975)
Degree Days  
Heating Degree Days 6    
Growing Degree Days 9 (Base 50)    
Moisture  
Dew Point 50 °F    
Average Humidity 72    
Maximum Humidity 83    
Minimum Humidity 47    
Precipitation  
Precipitation 0.00 in - - ()
Sea Level Pressure  
Sea Level Pressure 30.22 in    
Wind  
Wind Speed 8 mph (SW)    
Max Wind Speed 18 mph    
Max Gust Speed 21 mph    
Averages and records for this station are not official NWS values.
T = Trace of Precipitation, MM = Missing Value Source: NWS Daily Summary

Daily Weather History Graph

Daily Weather History Graph

Search for Another Location

Airport or City:

Trip Planner

Search our weather history database for the weather conditions in past years. The results will help you decide how hot, cold, wet, or windy it might be!

Date:

Astronomy

Dec. 20, 2011 Rise Set
Actual Time 7:09 AM EST 4:57 PM EST
Civil Twilight 6:41 AM EST 5:25 PM EST
Nautical Twilight 6:09 AM EST 5:57 PM EST
Astronomical Twilight 5:38 AM EST 6:28 PM EST
Moon 2:33 AM EST (12/20) 1:27 PM EST (12/20)
Length of Visible Light 10h 44m
Length of Day
9h 48m
Waning Crescent, 21% of the Moon is Illuminated
Dec 20
Waning Crescent
Dec 24
New
Jan 1
First Quarter
Jan 9
Full
Jan 16
Last Quarter

Hourly Weather History & Observations

Time (EST) Temp. Dew Point Humidity Pressure Visibility Wind Dir Wind Speed Gust Speed Precip Events Conditions
12:56 AM 52.0 °F 46.9 °F 83% 30.23 in - SW 9.2 mph - N/A   Clear
1:56 AM 52.0 °F 46.0 °F 80% 30.23 in - SW 8.1 mph - N/A   Clear
2:56 AM 51.1 °F 46.0 °F 83% 30.23 in - SW 6.9 mph - N/A   Clear
3:56 AM 51.1 °F 46.0 °F 83% 30.22 in - SW 6.9 mph - N/A   Clear
4:56 AM 52.0 °F 46.0 °F 80% 30.22 in - SW 6.9 mph - N/A   Clear
5:56 AM 53.1 °F 46.9 °F 80% 30.23 in - SSW 6.9 mph - N/A   Clear
6:56 AM 48.0 °F 43.0 °F 83% 30.25 in - SSW 6.9 mph - N/A   Clear
7:56 AM 52.0 °F 46.9 °F 83% 30.25 in - SSW 5.8 mph - N/A   Clear
8:56 AM 59.0 °F 51.1 °F 75% 30.27 in - WSW 8.1 mph - N/A   Partly Cloudy
9:56 AM 63.0 °F 51.1 °F 65% 30.27 in - West 12.7 mph - N/A   Clear
10:56 AM 64.9 °F 51.1 °F 61% 30.26 in - West 13.8 mph - N/A   Clear
11:56 AM 68.0 °F 51.1 °F 55% 30.23 in - West 18.4 mph - N/A   Clear
12:56 PM 70.0 °F 50.0 °F 49% 30.20 in - West 11.5 mph 20.7 mph N/A   Clear
1:56 PM 70.0 °F 50.0 °F 49% 30.18 in - West 13.8 mph - N/A   Clear
2:56 PM 70.0 °F 48.9 °F 47% 30.18 in - West 9.2 mph - N/A   Clear
3:56 PM 68.0 °F 50.0 °F 52% 30.19 in - West 3.5 mph - N/A   Clear
4:56 PM 64.0 °F 50.0 °F 60% 30.19 in - SSW 6.9 mph - N/A   Clear
5:56 PM 60.1 °F 52.0 °F 75% 30.20 in - South 5.8 mph - N/A   Clear
6:56 PM 60.1 °F 53.1 °F 78% 30.21 in - Calm Calm - N/A   Mostly Cloudy
7:56 PM 57.9 °F 52.0 °F 81% 30.22 in - Calm Calm - N/A   Overcast
8:56 PM 59.0 °F 53.1 °F 81% 30.23 in - Calm Calm - N/A   Overcast
9:56 PM 59.0 °F 54.0 °F 83% 30.23 in - South 5.8 mph - N/A   Overcast
10:56 PM 60.1 °F 54.0 °F 80% 30.22 in - South 3.5 mph - N/A   Overcast
11:56 PM 60.1 °F 54.0 °F 80% 30.21 in - South 4.6 mph - N/A   Partly Cloudy